Flag for Dominican Republic Weather past 2 weeks in Punta Cana, Dominican Republic

Now
75 °F

Passing clouds.


Feels Like: 74 °F
Forecast: 76 / 84 °F
Wind: 6 mph from Southeast

Location: Punta Cana


UV Index: 10 (Very high)

Visibility: N/A


Pressure: 30.01 "Hg

Humidity: 94%

Dew point: 73 °F

Location of Punta CanaLocation

Historic Weather in Punta Cana

°F

Punta Cana temperature yesterday

Maximum temperature yesterday: 86 °F (at 12:00 PM)
Minimum temperature yesterday: 73 °F (at 11:00 PM)
Average temperature yesterday: 80 °F

Past Weeks' High & Low Weather Summary

 TemperatureHumidityPressure
High86 °F (Apr 6, 1:00 PM)100% (Apr 12, 7:00 AM)30.12 "Hg (Apr 12, 7:00 AM)
Low72 °F (Apr 6, 9:00 PM)51% (Apr 12, 12:00 PM)29.89 "Hg (Apr 15, 5:00 PM)
Average80 °F75%30.02 "Hg
* Reported Apr 5 3:00 AM — Apr 20 3:00 AM, Punta Cana, Weather by CustomWeather, © 2014

Note: Actual official high and low records may vary slightly from our data, if they occured in-between our weather recording intervals... More about our weather records

Advertising

Historic Weather Conditions — Data for Previous 24 hours

 ConditionsComfort  
Time TempWeatherWind HumidityBarometerVisibility
3:00 AM
Apr 20
75 °FPassing clouds.6 mph94%30.01 "HgN/A
2:00 AM77 °FPassing clouds.5 mph83%30.04 "HgN/A
1:00 AM77 °FPassing clouds.7 mph89%30.04 "HgN/A
12:00 AM77 °FPartly cloudy.8 mph83%30.04 "HgN/A
11:00 PM
Apr 19
73 °FLight rain. Passing clouds.7 mph94%30.04 "Hg5 mi
10:00 PM77 °FPartly cloudy.No wind89%30.04 "HgN/A
9:00 PM77 °FPartly cloudy.5 mph89%30.04 "HgN/A
8:00 PM77 °FLight rain. Passing clouds.6 mph94%30.01 "Hg4 mi
7:00 PM75 °FRain. Passing clouds.5 mph94%29.89 "Hg5 mi
6:00 PM75 °FRain. Partly sunny.5 mph94%29.98 "Hg5 mi
5:00 PM82 °FScattered clouds.12 mph70%29.98 "HgN/A
4:00 PM84 °FScattered clouds.8 mph70%29.98 "HgN/A
3:00 PM86 °FPassing clouds.8 mph62%30.01 "HgN/A
2:00 PM84 °FPassing clouds.9 mph66%30.04 "HgN/A
1:00 PM84 °FPassing clouds.7 mph62%30.04 "HgN/A
12:00 PM86 °FPassing clouds.7 mph59%30.07 "HgN/A
11:00 AM84 °FScattered clouds.13 mph62%30.07 "HgN/A
10:00 AM84 °FScattered clouds.14 mph62%30.07 "HgN/A
9:00 AM82 °FPassing clouds.7 mph70%30.07 "HgN/A
8:00 AM81 °FPassing clouds.9 mph70%30.04 "HgN/A
7:00 AM79 °FPassing clouds.12 mph74%30.04 "HgN/A
6:00 AM77 °FPassing clouds.6 mph79%30.04 "HgN/A
5:00 AM77 °FPassing clouds.7 mph79%30.01 "HgN/A
4:00 AM77 °FPassing clouds.5 mph79%30.01 "HgN/A
3:00 AM77 °FPassing clouds.7 mph79%30.01 "HgN/A
Weather by CustomWeather, © 2014

See weather overview